Wolf Creek Pass, CO

4:47 PM MDT on April 24, 2017 (GMT -0600)
Wolf Creek Pass

Weather History for KCPW - April, 2012

Change the Weather History Date:

Friday, April 13, 2012

  Actual Average (KE33) Record (KE33)
Temperature  
Mean Temperature 18 °F -  
Max Temperature 23 °F 50 °F 69 °F (2002)
Min Temperature 14 °F 30 °F 19 °F (1997)
Degree Days  
Heating Degree Days 46    
Moisture  
Dew Point 7 °F    
Average Humidity 61    
Maximum Humidity 93    
Minimum Humidity 42    
Precipitation  
Precipitation 0.00 in - - ()
Sea Level Pressure  
Sea Level Pressure 29.96 in    
Wind  
Wind Speed 17 mph (SW)    
Max Wind Speed 31 mph    
Max Gust Speed 45 mph    
Visibility 9 miles    
Events Snow    
Averages and records for this station are not official NWS values.
T = Trace of Precipitation, MM = Missing Value Source: NWS Daily Summary

Daily Weather History Graph

Daily Weather History Graph

Search for Another Location

Airport or City:

Trip Planner

Search our weather history database for the weather conditions in past years. The results will help you decide how hot, cold, wet, or windy it might be!

Date:

Astronomy

Apr. 13, 2012 Rise Set
Actual Time 6:34 AM MDT 7:41 PM MDT
Civil Twilight 6:07 AM MDT 8:08 PM MDT
Nautical Twilight 5:35 AM MDT 8:40 PM MDT
Astronomical Twilight 5:02 AM MDT 9:13 PM MDT
Moon 2:11 AM MDT (4/13) 12:42 PM MDT (4/13)
Length of Visible Light 14h 00m
Length of Day
13h 06m
Waning Gibbous, 47% of the Moon is Illuminated
Apr 13
Waning Gibbous
Apr 21
New
Apr 29
First Quarter
May 5
Full
May 12
Last Quarter

Hourly Weather History & Observations

Time (MDT) Temp. Windchill Dew Point Humidity Pressure Visibility Wind Dir Wind Speed Gust Speed Precip Events Conditions
12:14 AM 19.4 °F 2.5 °F -0.4 °F 42% 29.97 in 10.0 mi WSW 23.0 mph 41.4 mph N/A   Clear
12:34 AM 19.4 °F 4.5 °F -0.4 °F 42% 29.97 in 10.0 mi SW 17.3 mph 35.7 mph N/A   Clear
12:54 AM 19.4 °F 2.5 °F -0.4 °F 42% 29.97 in 10.0 mi SW 23.0 mph 32.2 mph N/A   Clear
1:14 AM 19.4 °F 1.4 °F -0.4 °F 42% 29.97 in 10.0 mi SW 26.5 mph 35.7 mph N/A   Clear
1:34 AM 19.4 °F 0.2 °F -0.4 °F 42% 29.97 in 10.0 mi SW 31.1 mph 44.9 mph N/A   Clear
1:54 AM 17.6 °F 0.1 °F 1.4 °F 49% 29.97 in 10.0 mi SW 23.0 mph 36.8 mph N/A   Clear
2:14 AM 19.4 °F 1.4 °F 1.4 °F 46% 29.96 in 10.0 mi SW 26.5 mph 39.1 mph N/A   Clear
2:34 AM 17.6 °F 1.7 °F 3.2 °F 53% 29.97 in 10.0 mi SW 18.4 mph 39.1 mph N/A   Clear
2:54 AM 17.6 °F 2.7 °F 1.4 °F 49% 29.97 in 10.0 mi SW 16.1 mph 29.9 mph N/A   Scattered Clouds
3:14 AM 17.6 °F 1.3 °F 1.4 °F 49% 29.98 in 10.0 mi SSW 19.6 mph 27.6 mph N/A   Scattered Clouds
3:34 AM 15.8 °F 0.3 °F 1.4 °F 53% 29.97 in 10.0 mi SW 16.1 mph 25.3 mph N/A   Clear
3:54 AM 15.8 °F -1.9 °F 1.4 °F 53% 29.98 in 10.0 mi SW 21.9 mph 29.9 mph N/A   Scattered Clouds
4:14 AM 15.8 °F 0.3 °F 1.4 °F 53% 29.98 in 10.0 mi SW 16.1 mph 28.8 mph N/A   Mostly Cloudy
4:34 AM 15.8 °F -0.6 °F 1.4 °F 53% 29.98 in 10.0 mi SW 18.4 mph 27.6 mph N/A   Overcast
4:54 AM 14.0 °F -3.0 °F 1.4 °F 57% 29.99 in 10.0 mi SW 18.4 mph 24.2 mph N/A   Overcast
5:14 AM 14.0 °F -3.4 °F 1.4 °F 57% 29.99 in 10.0 mi SW 19.6 mph 26.5 mph N/A   Overcast
5:34 AM 14.0 °F -1.4 °F 3.2 °F 62% 29.99 in 10.0 mi SW 15.0 mph 24.2 mph N/A   Overcast
5:54 AM 14.0 °F -1.4 °F 3.2 °F 62% 29.98 in 10.0 mi SW 15.0 mph 20.7 mph N/A   Mostly Cloudy
6:14 AM 14.0 °F -1.4 °F 1.4 °F 57% 29.99 in 10.0 mi SW 15.0 mph 20.7 mph N/A   Scattered Clouds
6:34 AM 14.0 °F -2.5 °F 1.4 °F 57% 30.00 in 10.0 mi SW 17.3 mph 23.0 mph N/A   Scattered Clouds
6:54 AM 14.0 °F -1.4 °F 1.4 °F 57% 29.99 in 10.0 mi SW 15.0 mph 20.7 mph N/A   Clear
7:14 AM 14.0 °F -0.2 °F 3.2 °F 62% 29.99 in 10.0 mi SW 12.7 mph 20.7 mph N/A   Clear
7:34 AM 14.0 °F -0.2 °F 3.2 °F 62% 30.00 in 10.0 mi SW 12.7 mph 17.3 mph N/A   Clear
7:54 AM 15.8 °F 4.2 °F 3.2 °F 58% 30.00 in 10.0 mi SW 9.2 mph 19.6 mph N/A   Clear
8:14 AM 17.6 °F 5.7 °F 5.0 °F 58% 30.01 in 10.0 mi SSW 10.4 mph 19.6 mph N/A   Mostly Cloudy
8:34 AM 17.6 °F 7.3 °F 5.0 °F 58% 30.01 in 10.0 mi SW 8.1 mph - N/A   Overcast
8:54 AM 19.4 °F 8.6 °F 6.8 °F 58% 30.01 in 10.0 mi SSW 9.2 mph - N/A   Overcast
9:14 AM 19.4 °F 10.4 °F 6.8 °F 58% 30.01 in 10.0 mi SSW 6.9 mph - N/A   Overcast
9:34 AM 21.2 °F 10.9 °F 6.8 °F 54% 30.01 in 10.0 mi SW 9.2 mph 16.1 mph N/A   Overcast
9:52 AM 21.2 °F 10.1 °F 8.6 °F 58% 30.01 in 10.0 mi SSW 10.4 mph 17.3 mph N/A   Overcast
10:14 AM 21.2 °F 10.9 °F 8.6 °F 58% 30.01 in 10.0 mi SSW 9.2 mph 17.3 mph N/A   Overcast
10:34 AM 21.2 °F 6.8 °F 6.8 °F 54% 30.02 in 10.0 mi SW 17.3 mph 28.8 mph N/A   Overcast
10:54 AM 21.2 °F 7.8 °F 6.8 °F 54% 30.02 in 7.0 mi SW 15.0 mph 27.6 mph N/A   Overcast
11:14 AM 21.2 °F 7.3 °F 6.8 °F 54% 30.02 in 10.0 mi SSW 16.1 mph 28.8 mph N/A   Overcast
11:34 AM 21.2 °F 9.5 °F 6.8 °F 54% 30.02 in 10.0 mi SW 11.5 mph 28.8 mph N/A   Overcast
11:54 AM 21.2 °F 7.8 °F 8.6 °F 58% 30.01 in 10.0 mi SSW 15.0 mph 25.3 mph N/A   Overcast
12:14 PM 23.0 °F 9.6 °F 8.6 °F 54% 30.01 in 10.0 mi SW 16.1 mph 32.2 mph N/A   Overcast
12:34 PM 23.0 °F 10.1 °F 8.6 °F 54% 30.00 in 10.0 mi SW 15.0 mph 32.2 mph N/A   Overcast
12:54 PM 23.0 °F 10.6 °F 8.6 °F 54% 30.00 in 10.0 mi WSW 13.8 mph 28.8 mph N/A   Overcast
1:14 PM 23.0 °F 11.7 °F 8.6 °F 54% 30.00 in 10.0 mi SSW 11.5 mph 28.8 mph N/A   Overcast
1:34 PM 23.0 °F 11.7 °F 8.6 °F 54% 29.99 in 10.0 mi SSW 11.5 mph 29.9 mph N/A   Overcast
1:54 PM 23.0 °F 9.6 °F 10.4 °F 59% 29.98 in 10.0 mi SSW 16.1 mph 32.2 mph N/A   Overcast
2:14 PM 21.2 °F 10.9 °F 10.4 °F 63% 29.98 in 7.0 mi SSW 9.2 mph 29.9 mph N/A   Overcast
2:34 PM 21.2 °F 6.4 °F 12.2 °F 68% 29.98 in 2.5 mi SW 18.4 mph 29.9 mph N/A Snow Light Snow
2:54 PM 19.4 °F 6.0 °F 14.0 °F 80% 29.97 in 1.8 mi SSW 13.8 mph 20.7 mph N/A Snow Light Snow
3:14 PM 19.4 °F 7.9 °F 17.6 °F 93% 29.97 in 0.8 mi SSW 10.4 mph 24.2 mph N/A Snow Light Snow
3:34 PM 19.4 °F 5.5 °F 15.8 °F 86% 29.96 in 1.2 mi SW 15.0 mph 24.2 mph N/A Snow Light Snow
3:54 PM 19.4 °F 7.2 °F 17.6 °F 93% 29.96 in 0.8 mi SSW 11.5 mph 23.0 mph N/A Snow Light Snow
4:14 PM 19.4 °F 6.6 °F 17.6 °F 93% 29.94 in 1.0 mi SW 12.7 mph 21.9 mph N/A Snow Light Snow
4:34 PM 19.4 °F 6.6 °F 17.6 °F 93% 29.94 in 7.0 mi SW 12.7 mph 23.0 mph N/A   Overcast
4:54 PM 21.2 °F 9.5 °F 15.8 °F 80% 29.94 in 10.0 mi SW 11.5 mph 21.9 mph N/A   Overcast
5:14 PM 21.2 °F 10.1 °F 14.0 °F 74% 29.94 in 10.0 mi SW 10.4 mph 17.3 mph N/A   Overcast
5:34 PM 23.0 °F 12.4 °F 15.8 °F 74% - 10.0 mi SW 10.4 mph 16.1 mph N/A   Overcast
5:54 PM 21.2 °F 10.9 °F 12.2 °F 68% 29.94 in 10.0 mi SW 9.2 mph 17.3 mph N/A   Overcast
6:14 PM 21.2 °F 10.1 °F 12.2 °F 68% 29.94 in 10.0 mi SW 10.4 mph 16.1 mph N/A   Overcast
6:34 PM 21.2 °F 10.9 °F 14.0 °F 74% 29.93 in 10.0 mi SW 9.2 mph - N/A   Overcast
6:54 PM 21.2 °F 10.9 °F 12.2 °F 68% 29.93 in 10.0 mi SW 9.2 mph 16.1 mph N/A   Overcast
7:14 PM 21.2 °F 10.9 °F 12.2 °F 68% 29.92 in 10.0 mi SW 9.2 mph - N/A   Overcast
7:34 PM 21.2 °F 7.8 °F 12.2 °F 68% 29.91 in 10.0 mi SW 15.0 mph 23.0 mph N/A   Overcast
7:54 PM 21.2 °F 11.7 °F 10.4 °F 63% 29.91 in 10.0 mi SSW 8.1 mph 23.0 mph N/A   Overcast
8:14 PM 21.2 °F 10.1 °F 10.4 °F 63% 29.92 in 10.0 mi SW 10.4 mph 18.4 mph N/A   Overcast
8:34 PM 21.2 °F 11.7 °F 10.4 °F 63% 29.91 in 10.0 mi SSW 8.1 mph - N/A   Overcast
8:54 PM 21.2 °F 11.7 °F 10.4 °F 63% 29.92 in 10.0 mi SSW 8.1 mph - N/A   Overcast
9:14 PM 21.2 °F 11.7 °F 8.6 °F 58% 29.92 in 10.0 mi SSW 8.1 mph - N/A   Overcast
9:34 PM 21.2 °F 11.7 °F 8.6 °F 58% 29.91 in 10.0 mi SW 8.1 mph 19.6 mph N/A   Overcast
9:54 PM 21.2 °F 10.1 °F 8.6 °F 58% 29.91 in 10.0 mi SW 10.4 mph 16.1 mph N/A   Overcast
10:14 PM 21.2 °F 7.8 °F 8.6 °F 58% 29.89 in 10.0 mi SW 15.0 mph 23.0 mph N/A   Overcast
10:34 PM 21.2 °F 9.5 °F 8.6 °F 58% 29.89 in 10.0 mi SSW 11.5 mph 19.6 mph N/A   Overcast
10:54 PM 21.2 °F 11.7 °F 8.6 °F 58% 29.88 in 10.0 mi SSW 8.1 mph 20.7 mph N/A   Overcast
11:14 PM 21.2 °F 9.5 °F 8.6 °F 58% 29.87 in 10.0 mi SSW 11.5 mph 25.3 mph N/A   Overcast
11:34 PM 21.2 °F 10.1 °F 10.4 °F 63% 29.87 in 10.0 mi SW 10.4 mph 26.5 mph N/A   Overcast
11:54 PM 21.2 °F 7.8 °F 10.4 °F 63% 29.86 in 10.0 mi SSW 15.0 mph 35.7 mph N/A   Overcast